Theta_e
311 311 310 310 309 308 306 304 302 301 299 297 295 294 293 292 291 291 291 291 291 291 290 290 290 290 289 289 289 288 288 288 288 288 288 288 288 288 288 288 288 287 287 286 285 285 284 284 284 284 284 284 284 284 284 285 284 283 283 282 281 279
311 310 310 310 308 307 306 304 302 300 299 297 294 293 292 292 291 291 291 291 291 290 290 290 290 289 289 288 288 288 288 288 288 288 288 288 288 288 288 287 287 287 286 285 285 284 284 284 284 284 284 284 284 284 284 284 284 283 282 282 280 278
311 310 310 309 308 307 306 304 302 300 298 296 294 293 292 291 291 291 291 291 291 290 290 290 289 289 289 288 288 288 288 288 288 288 288 288 288 288 287 287 287 286 285 285 284 284 284 283 283 283 283 284 284 284 284 284 283 282 282 281 279 277
310 310 309 309 308 307 305 303 301 299 298 296 294 293 292 291 291 291 290 290 290 290 290 289 289 288 288 288 288 288 288 288 288 288 288 288 287 287 287 287 286 286 285 284 284 283 283 283 283 283 283 284 284 283 283 283 282 281 281 279 277 275
310 309 309 308 308 307 305 304 302 300 298 296 294 293 292 291 291 291 290 290 290 290 289 289 289 288 288 288 288 288 288 288 288 288 288 287 287 287 286 286 286 285 284 284 283 283 283 283 283 283 283 283 283 283 282 282 281 280 279 277 275 273
309 309 309 308 307 306 305 304 301 299 297 295 294 293 292 291 291 290 290 290 290 289 289 288 288 288 288 288 288 288 288 288 288 288 287 287 287 286 286 286 285 284 284 283 283 283 283 283 283 283 283 283 283 282 282 281 280 278 276 274 273 271
309 308 308 308 307 306 305 303 301 299 297 295 294 292 292 291 291 290 290 290 289 289 288 288 288 288 288 288 288 288 288 288 288 288 287 287 286 286 286 285 284 284 283 283 283 283 283 283 283 283 283 283 282 282 282 280 278 276 274 273 272 272
308 308 308 307 307 306 305 303 300 298 296 294 293 292 291 291 290 290 290 289 289 288 288 288 288 288 288 288 288 288 288 288 288 287 287 286 286 286 285 284 284 283 283 283 283 283 283 283 283 283 282 282 282 281 281 279 276 274 273 272 272 272
308 307 307 307 306 305 304 302 300 298 296 294 293 292 291 291 290 290 289 289 288 288 288 288 288 288 288 288 288 288 288 288 287 287 286 286 285 285 284 284 283 283 283 283 282 282 283 283 283 283 282 281 281 281 279 277 274 273 272 272 272 272
307 306 306 306 305 304 303 301 299 297 295 294 292 291 291 290 290 290 289 288 288 288 288 288 288 288 288 288 288 288 288 287 287 286 286 285 285 284 284 283 283 283 282 282 282 282 282 283 282 282 281 281 281 280 278 275 273 272 272 272 272 273
306 306 306 305 304 303 302 300 297 295 294 293 292 291 290 290 290 289 289 288 288 288 288 288 288 288 288 288 288 288 288 287 286 286 285 285 284 284 283 283 282 282 282 282 282 282 282 282 282 281 281 281 281 279 276 273 272 273 273 273 273 274
306 305 305 304 304 303 302 300 297 295 293 292 292 291 290 290 289 289 288 288 287 288 288 288 288 288 288 288 288 288 287 286 285 285 285 285 284 283 283 283 282 282 282 282 282 282 282 282 282 281 281 280 280 278 275 273 273 273 274 274 274 275
305 305 304 304 304 303 302 300 298 295 293 292 291 290 290 289 289 288 288 287 287 287 287 287 287 288 288 288 288 287 286 286 285 285 285 284 284 283 283 282 282 281 281 281 282 282 282 282 281 281 281 281 280 278 275 274 274 274 275 275 275 275
305 305 305 305 304 303 301 300 298 295 293 292 290 290 289 289 288 288 287 287 287 287 287 288 288 288 288 288 287 286 286 285 285 285 285 284 283 283 282 281 281 281 281 281 281 281 281 281 281 281 280 281 280 278 275 274 275 275 275 275 276 276
306 306 306 305 304 303 302 301 298 296 294 292 290 290 289 289 288 287 287 287 287 287 287 288 288 288 288 287 287 286 285 285 285 285 284 284 283 282 281 281 281 281 281 281 281 281 281 281 281 281 280 281 280 278 275 274 275 275 275 275 275 275
306 306 305 305 304 303 302 300 297 295 294 292 290 289 289 288 287 287 287 287 287 287 287 288 288 288 287 287 286 285 285 285 285 285 284 283 282 281 281 281 281 281 281 280 281 281 281 280 280 280 280 280 280 277 275 275 275 275 275 275 275 275
306 306 305 304 303 301 300 298 296 294 293 291 290 289 288 288 287 287 287 287 287 287 287 288 288 287 287 286 285 285 285 285 285 284 283 283 281 281 280 280 280 280 280 280 280 280 280 280 280 280 280 280 278 276 274 275 275 274 275 275 274 275
307 306 305 304 302 300 299 297 296 294 292 290 289 289 288 287 287 287 287 287 287 287 287 288 288 287 286 286 285 285 285 285 284 284 283 282 281 280 280 280 280 280 280 280 279 280 280 280 280 280 280 279 276 274 274 274 274 274 274 274 274 275
307 305 304 303 302 300 299 297 295 293 291 289 289 288 287 287 287 287 287 287 287 287 288 288 287 287 286 285 285 285 285 285 284 283 282 281 280 280 279 279 279 279 279 279 279 279 279 279 279 279 279 277 275 274 274 274 274 274 274 274 275 275
306 305 304 303 301 300 299 297 294 292 290 289 288 287 287 286 287 287 287 287 287 287 288 287 287 286 285 285 285 285 285 284 283 282 281 280 280 279 279 279 279 279 279 278 278 278 278 279 279 278 278 276 274 273 274 274 274 274 274 274 275 275
306 304 303 302 301 300 298 296 294 292 290 288 288 287 286 286 287 287 287 287 287 288 288 287 286 286 285 285 285 285 285 284 283 282 281 280 279 279 278 278 278 278 278 278 278 278 278 278 278 277 277 275 273 273 274 274 274 274 275 275 275 275
307 306 305 304 303 301 299 296 293 291 289 288 287 287 287 287 287 287 287 287 288 288 287 287 286 285 285 285 285 285 284 283 282 281 280 279 278 278 278 277 277 277 277 277 277 278 278 277 277 277 276 275 274 273 274 274 274 275 275 275 275 275
308 308 306 305 303 301 299 296 293 290 289 288 287 287 287 287 287 287 287 287 288 287 287 286 285 285 285 285 285 284 283 282 281 280 279 278 278 277 277 277 277 277 277 277 277 277 277 276 276 276 275 274 273 273 274 274 275 275 275 275 274 274
307 306 304 303 302 300 298 296 292 290 288 287 287 287 287 287 287 287 287 288 287 287 286 285 285 284 285 285 284 284 283 282 280 279 278 278 277 277 277 276 276 276 277 277 277 276 276 276 275 275 275 274 273 273 274 274 274 275 275 274 274 274
306 305 303 302 300 298 297 295 292 290 288 287 286 286 287 287 287 287 287 287 287 287 286 285 284 284 285 284 284 283 282 281 279 278 278 277 277 276 276 276 276 276 276 277 276 276 275 275 275 275 274 273 272 272 273 274 274 274 274 273 273 273
304 303 301 300 299 297 295 293 291 289 287 286 286 286 286 287 287 287 287 288 287 286 285 284 284 284 284 284 283 282 281 279 278 278 277 277 276 276 276 275 275 275 276 276 275 275 275 274 274 274 273 272 272 272 273 273 273 273 273 272 272 272
303 302 300 298 296 295 293 291 290 289 287 286 286 286 286 287 287 287 288 287 287 285 284 284 284 284 284 283 282 281 280 279 278 277 277 276 276 275 275 275 275 275 275 274 274 274 274 274 274 273 272 271 272 272 272 272 272 272 272 272 271 272
300 299 299 297 294 292 291 290 289 288 286 286 286 286 287 287 287 288 288 287 286 284 284 284 284 284 283 283 282 280 279 278 277 277 276 276 276 275 275 275 274 274 274 273 273 273 274 274 273 272 271 271 272 272 272 272 271 272 272 271 271 272
298 297 297 296 293 291 289 287 286 286 286 286 286 286 287 287 288 288 288 286 284 283 284 284 284 283 283 282 281 280 279 278 277 277 276 276 275 275 274 274 274 273 273 273 272 272 272 273 272 271 271 271 271 272 272 271 270 271 271 270 271 271
299 298 297 295 293 291 288 286 285 285 286 286 286 287 287 287 288 288 287 285 283 283 284 283 283 282 282 281 280 279 278 278 277 276 276 275 275 274 274 273 273 272 272 272 272 271 271 271 271 271 271 271 271 271 271 271 270 270 270 270 270 271
300 299 297 295 293 290 287 285 284 284 285 286 286 287 287 288 287 287 285 283 283 283 283 283 282 282 281 280 279 279 278 277 277 276 275 274 274 273 273 272 272 272 272 271 271 271 271 271 271 271 271 271 271 271 271 270 270 270 270 270 270 271
298 297 296 294 292 289 286 285 284 284 285 286 287 287 288 288 287 285 283 283 283 283 282 282 281 281 280 280 279 278 277 277 276 276 275 274 273 273 272 272 272 272 271 271 271 271 271 270 270 271 271 271 271 271 270 270 271 271 270 270 271 272
295 294 294 292 290 288 285 284 284 285 285 286 287 287 287 287 287 285 284 283 283 282 281 281 280 280 280 279 278 277 276 275 275 275 274 274 273 272 272 272 272 272 271 271 271 272 272 271 270 271 272 272 271 271 271 271 271 272 272 271 271 272
294 293 292 291 289 286 284 284 284 285 286 287 287 287 287 287 286 285 284 283 283 282 280 280 279 279 279 279 278 277 276 275 274 273 273 272 272 272 272 272 272 272 272 272 272 272 272 271 271 271 271 272 272 272 272 271 272 272 272 272 272 272
295 293 290 289 288 286 284 284 285 286 286 287 287 287 287 286 285 284 284 284 282 281 280 279 279 279 279 279 278 277 276 275 274 273 273 272 271 271 271 271 271 272 272 272 272 272 272 272 271 271 271 272 272 272 272 272 273 272 272 272 272 271
294 291 289 288 287 285 284 285 286 286 287 287 287 287 286 285 283 282 283 283 282 281 280 279 279 279 279 278 277 276 276 275 274 274 273 273 272 272 271 271 271 271 272 272 272 272 272 272 271 271 271 271 272 272 272 273 274 273 272 272 270 269
291 290 288 287 286 285 285 285 286 286 287 287 287 286 285 283 282 281 281 280 280 280 279 279 279 278 278 278 277 276 275 274 273 273 273 272 272 272 272 271 271 271 271 272 272 272 272 272 271 271 271 271 271 272 272 273 274 274 273 273 271 270
289 288 287 286 285 285 285 286 286 287 287 287 286 286 285 283 282 282 281 280 279 279 278 278 278 278 278 277 276 275 275 274 273 272 272 271 271 271 271 271 271 271 271 271 271 271 271 271 270 270 271 271 271 271 272 272 272 272 272 271 270 270
Wind_Speed
26 27 26 26 26 27 30 32 35 38 42 47 53 54 53 50 47 43 39 36 33 30 28 25 23 22 21 21 20 20 21 21 22 23 25 26 28 31 33 35 38 40 41 41 40 39 37 37 37 38 40 42 44 47 48 50 50 50 51 49 47 46
27 28 28 27 27 28 31 34 35 38 41 47 53 54 53 50 46 43 40 37 34 30 28 25 23 22 21 21 20 20 21 21 23 24 25 27 29 31 34 37 39 40 40 39 38 37 37 37 38 40 42 44 46 47 48 50 50 50 51 50 47 45
28 28 29 29 30 31 32 34 36 38 42 47 53 55 54 51 47 44 41 37 34 30 28 25 23 22 21 21 20 20 21 21 23 24 26 28 30 32 35 37 39 39 39 38 36 37 37 38 40 41 43 45 47 48 49 49 49 49 49 49 48 41
29 30 31 31 32 33 34 36 37 40 43 47 52 55 55 53 49 45 41 37 34 30 28 25 24 22 21 20 20 20 21 22 23 25 27 29 31 33 36 37 38 38 37 36 36 37 38 39 41 42 44 45 47 47 48 49 48 48 47 46 46 36
31 32 33 33 34 35 36 37 39 41 43 47 52 55 56 54 50 46 41 37 33 30 28 26 24 22 21 20 20 20 21 22 24 26 28 30 32 34 35 36 36 36 35 35 36 37 39 40 41 43 44 45 46 46 47 48 46 45 44 42 38 29
33 34 35 35 36 37 37 39 40 41 44 47 52 56 57 55 50 45 41 37 33 30 28 26 23 22 20 19 19 20 21 22 24 27 28 30 32 34 35 35 34 34 34 35 36 38 39 41 41 43 44 44 45 46 47 47 45 42 40 37 31 26
35 37 37 37 38 39 39 40 41 42 45 47 52 56 57 55 50 45 41 37 33 30 28 25 23 21 20 19 19 20 21 23 25 27 29 30 32 33 33 32 32 32 33 34 36 38 39 41 42 43 44 45 45 46 47 46 44 40 34 29 28 28
38 39 39 39 40 40 40 41 42 43 46 48 53 56 57 54 49 45 41 36 33 30 27 25 22 21 20 19 19 20 21 23 25 27 29 30 31 31 31 30 30 31 33 34 35 37 38 40 41 42 43 45 45 45 45 43 40 35 31 31 33 35
40 40 40 40 41 41 41 41 42 44 47 50 54 57 57 53 48 44 40 36 33 30 27 25 22 20 19 18 19 20 22 24 25 26 28 29 30 29 28 28 29 31 32 34 35 37 38 39 41 42 42 43 44 44 42 40 38 37 37 40 42 41
42 41 40 41 42 42 41 41 43 45 48 52 55 57 56 52 48 43 39 35 33 29 27 24 21 20 19 18 19 21 22 23 24 25 27 28 27 27 27 27 29 30 32 33 35 36 37 38 39 40 41 42 42 41 40 38 39 39 39 40 42 42
43 41 41 42 42 42 41 42 44 46 50 53 56 57 55 51 46 42 38 35 32 29 26 23 21 19 18 18 19 21 22 22 23 24 25 26 25 25 26 27 29 31 32 33 34 35 36 38 38 39 40 40 40 39 38 37 38 39 40 41 42 43
43 41 41 42 43 42 42 43 45 48 51 55 57 57 54 50 45 41 38 35 31 28 25 22 20 19 18 19 20 21 21 21 22 23 23 24 24 24 25 27 28 30 32 33 34 35 36 37 37 38 38 38 38 37 36 37 39 40 42 44 45 46
41 41 42 42 43 42 43 44 45 48 52 55 57 57 53 49 45 41 37 34 30 27 24 21 19 18 18 19 19 19 20 20 21 22 22 22 23 24 25 27 28 29 31 32 34 35 36 36 36 37 37 37 35 33 33 36 39 41 42 44 45 46
41 41 43 43 42 43 44 44 46 49 53 56 58 56 52 47 44 40 37 33 30 26 23 21 19 18 18 18 18 18 18 19 20 21 21 21 22 24 25 26 28 29 30 32 33 34 36 36 36 36 36 36 34 32 31 34 38 40 43 43 43 43
41 42 42 42 42 43 43 44 46 49 53 56 57 55 50 47 43 39 36 33 29 26 22 20 19 18 18 17 17 17 17 19 20 20 20 21 22 24 25 26 27 28 29 31 33 35 35 36 35 35 36 35 34 32 30 35 38 39 41 41 40 40
39 40 40 40 40 41 41 43 45 48 52 55 56 53 50 46 43 39 36 32 28 25 22 20 18 18 17 16 15 15 16 18 19 19 20 20 22 24 25 26 27 27 28 30 32 34 35 35 34 35 36 35 34 32 32 36 37 37 38 38 37 38
37 37 37 37 37 39 40 43 45 48 51 54 54 52 49 45 42 38 35 31 27 24 21 19 18 17 16 14 14 14 16 18 18 19 19 20 22 24 25 26 27 27 28 29 31 34 35 35 34 34 36 35 34 33 33 36 36 36 37 38 37 38
33 34 33 32 34 37 40 42 45 48 51 52 53 51 48 44 41 37 34 30 27 23 21 19 18 16 14 13 13 14 16 18 17 18 19 20 22 23 25 26 26 27 28 29 31 33 35 35 33 33 35 34 33 32 34 36 36 37 39 40 40 39
28 28 26 28 32 35 38 40 44 48 50 52 52 50 47 44 40 37 33 29 26 23 20 19 17 15 13 12 13 15 16 16 17 18 19 21 22 23 24 26 26 26 28 29 30 33 35 35 33 33 34 33 31 32 35 36 37 39 41 42 42 40
24 24 23 25 29 32 35 39 44 48 50 52 52 49 47 43 39 36 32 28 25 22 20 18 16 13 12 12 13 15 16 15 16 18 20 21 22 23 24 25 26 26 27 29 30 31 34 34 34 34 34 32 30 32 34 36 39 43 44 44 43 41
21 23 22 24 28 31 35 39 43 47 50 52 52 50 47 43 39 35 31 27 24 21 19 18 15 12 11 13 14 15 15 15 16 18 20 21 22 23 23 24 26 27 27 28 30 31 32 34 35 35 34 33 31 31 34 37 40 44 46 45 44 44
21 22 22 24 27 30 34 39 42 47 50 52 53 51 47 42 38 33 29 26 23 21 19 16 13 11 12 13 14 14 14 15 16 18 20 21 22 23 24 24 26 27 27 28 30 31 33 35 36 36 34 34 32 32 34 37 39 43 46 46 45 47
22 23 22 24 27 31 35 39 43 48 52 53 53 50 45 40 36 32 29 25 22 20 18 15 12 12 12 13 13 14 14 15 17 18 19 21 21 22 23 24 25 27 27 28 30 32 33 34 35 36 35 34 34 32 34 37 38 40 44 46 46 46
25 24 24 26 29 33 37 40 45 49 53 55 53 48 43 39 35 31 28 24 22 20 17 14 13 12 12 12 12 13 14 15 17 19 20 20 21 22 23 24 26 27 28 29 30 32 34 34 34 36 35 35 35 34 34 36 37 38 41 45 46 44
28 28 29 31 33 35 38 42 46 51 54 54 51 46 42 39 34 30 27 24 21 19 16 14 13 12 12 12 11 12 14 15 17 18 19 20 21 22 23 24 26 27 29 31 32 33 34 35 35 35 35 36 35 36 35 36 37 38 39 41 43 42
30 31 33 34 36 38 41 44 48 53 55 54 50 46 42 37 33 29 26 23 21 18 16 15 14 12 12 11 11 12 13 14 16 18 19 20 21 22 23 24 26 28 30 32 34 34 34 36 36 36 36 36 35 36 36 36 38 40 39 39 39 38
31 32 35 37 39 41 43 46 50 54 56 54 50 46 42 37 33 29 25 23 21 18 17 15 13 12 11 11 11 12 13 14 15 17 18 19 20 21 22 24 25 28 30 32 34 34 34 35 37 37 38 37 36 37 36 37 41 44 42 39 37 35
32 34 36 38 41 43 45 48 51 55 56 53 49 44 40 36 32 28 25 24 21 19 17 15 13 11 10 10 11 12 12 13 14 16 17 18 19 20 21 24 25 27 29 30 32 34 34 35 36 37 38 38 39 39 38 38 43 47 44 39 36 35
36 37 38 40 43 45 47 50 53 53 53 51 47 43 39 34 31 28 26 24 21 19 17 15 12 10 10 10 11 11 12 13 13 15 16 17 18 19 21 23 25 26 28 29 31 32 33 34 35 36 38 39 40 41 40 41 44 46 42 40 38 37
39 39 41 42 44 47 51 54 55 53 50 48 45 42 37 33 30 28 26 23 21 19 16 14 11 9 9 10 12 11 12 12 12 13 15 16 17 19 21 23 23 24 26 28 30 31 31 32 33 35 37 37 39 40 40 41 42 41 40 39 38 36
42 42 43 44 45 49 54 57 57 53 49 47 44 40 36 34 31 28 25 23 21 19 16 13 11 9 9 11 12 11 11 11 11 11 13 14 15 17 19 20 21 22 23 25 26 28 30 31 33 33 33 33 34 35 37 38 37 36 36 36 35 34
43 43 44 45 47 52 57 59 58 53 48 44 41 37 35 33 30 28 25 23 20 18 15 13 11 10 11 11 11 10 10 10 10 10 10 11 13 14 15 16 17 18 19 21 22 22 23 25 28 29 30 31 31 32 33 33 32 31 33 33 33 33
44 45 45 47 51 56 61 61 57 52 47 43 40 37 35 32 29 27 25 22 20 18 16 14 12 12 11 11 10 9 9 8 9 10 10 10 11 12 12 13 14 15 16 18 20 20 20 20 23 25 27 28 30 31 32 32 30 29 30 32 33 34
48 49 49 51 55 60 62 60 56 52 48 44 41 37 34 30 27 25 24 22 20 18 17 15 14 13 12 11 10 9 7 6 5 7 9 11 12 13 11 11 12 13 15 16 17 19 20 21 22 24 25 27 29 31 32 31 29 29 30 30 33 35
51 52 52 53 58 62 63 60 57 53 49 45 41 37 34 30 27 25 23 22 21 19 18 16 14 13 12 11 10 9 7 6 4 2 1 4 8 11 12 12 12 13 14 15 16 17 19 20 22 24 25 26 27 30 31 30 29 30 31 32 36 40
51 52 53 55 60 64 64 61 58 53 49 45 42 38 34 31 28 25 22 21 20 19 17 16 14 13 12 10 9 8 6 5 3 1 1 1 2 3 6 9 11 12 12 14 16 17 18 20 22 23 25 26 27 29 30 30 30 30 32 36 40 43
53 53 54 58 63 66 64 61 56 52 48 45 42 38 35 32 29 26 24 22 20 19 17 16 14 13 11 10 9 7 6 3 2 2 3 3 4 4 5 8 11 12 13 14 16 17 18 19 21 22 23 25 27 29 30 31 33 36 37 38 41 43
53 54 56 62 66 66 63 59 55 52 49 45 42 38 35 32 30 28 26 24 22 20 18 16 14 12 11 10 8 6 5 2 1 2 4 5 6 8 9 10 11 12 13 14 15 15 16 18 20 21 23 24 26 29 32 35 37 39 39 40 42 43
Wind_Direction
243 249 249 249 250 251 250 246 241 236 231 228 226 225 225 224 224 225 225 227 230 232 235 238 243 248 253 259 265 271 277 284 289 294 300 303 306 309 311 312 311 312 312 312 312 312 312 312 312 313 313 312 312 311 310 310 309 308 306 305 302 298
241 247 248 248 249 250 249 245 240 236 231 227 225 224 224 224 225 225 225 227 229 231 234 238 242 247 253 258 265 272 279 285 291 296 301 304 307 310 311 311 312 312 312 311 312 312 312 314 315 315 315 314 313 312 311 310 309 307 306 305 302 298
241 247 248 247 247 248 247 244 240 234 230 226 223 222 222 223 224 224 225 227 228 230 233 237 241 246 251 258 266 274 281 288 294 299 303 305 308 311 311 312 312 312 312 311 312 313 314 316 317 317 316 314 313 312 311 310 309 307 306 304 301 297
242 247 247 247 248 247 245 242 238 233 229 224 222 221 221 222 223 224 225 226 228 229 232 235 240 245 251 259 267 275 283 290 297 301 304 307 310 312 311 312 312 312 312 312 313 315 317 318 318 317 316 315 314 313 311 310 309 308 305 302 300 294
243 246 246 248 248 247 246 243 238 234 228 224 221 220 221 222 223 224 225 226 227 228 230 234 238 244 251 259 268 277 286 293 299 302 305 308 311 312 312 312 312 312 312 313 315 317 318 319 318 317 316 315 314 313 311 310 309 307 304 300 296 286
244 245 245 246 247 246 246 243 238 233 228 223 221 220 220 221 222 223 224 224 225 226 228 232 237 243 251 260 269 279 287 294 299 302 306 310 311 312 312 312 312 312 312 314 316 318 319 319 318 317 316 316 315 314 312 311 310 307 303 297 288 279
245 247 247 246 247 247 245 242 237 232 227 223 220 219 220 220 221 221 222 222 223 225 227 230 236 243 251 260 271 280 289 295 299 302 307 310 311 312 312 312 312 311 313 316 317 318 318 318 318 317 317 318 316 315 314 313 312 307 299 291 287 287
248 249 249 248 248 247 245 241 236 231 226 222 220 219 219 219 220 220 221 221 221 222 225 229 235 243 251 262 272 281 289 294 299 304 309 311 311 311 311 311 311 312 314 316 317 317 318 318 318 319 319 319 317 316 316 313 308 302 294 291 295 298
251 251 250 249 248 247 244 241 236 230 225 221 219 218 218 218 218 218 219 219 219 221 224 228 234 242 252 263 273 282 289 294 300 306 310 311 310 311 311 310 311 313 315 316 317 318 318 319 320 320 320 320 318 317 316 311 307 303 300 299 300 301
253 252 250 249 247 246 243 239 235 230 225 220 218 217 217 217 217 217 217 216 218 220 223 228 234 242 253 264 274 283 290 296 304 309 310 310 310 310 310 310 312 314 315 317 317 318 319 320 321 321 321 320 319 318 316 312 308 304 299 298 298 297
257 254 251 249 247 244 241 237 232 227 223 219 217 216 216 216 216 215 215 215 216 219 222 227 235 243 255 266 275 284 291 299 307 309 309 309 308 309 309 310 314 315 315 317 317 318 320 320 322 322 321 321 321 320 316 309 305 302 298 298 297 294
260 257 252 249 246 244 241 236 231 226 221 218 217 216 215 214 214 213 213 213 214 218 222 228 236 245 257 268 277 285 294 303 308 308 309 308 307 308 310 312 315 315 316 317 318 319 320 321 323 323 321 322 322 319 315 308 305 304 301 300 299 297
260 256 251 249 248 245 241 237 231 225 220 218 216 215 214 213 212 211 211 211 213 217 222 228 237 249 259 269 278 288 298 306 307 308 308 307 307 308 311 314 314 315 316 317 317 319 319 322 324 323 321 323 323 319 314 309 305 303 301 299 299 296
258 255 253 252 249 244 241 237 231 224 220 218 216 214 213 211 210 209 209 210 213 216 222 230 239 251 261 270 281 292 302 306 306 307 307 305 307 310 311 314 314 315 317 316 317 318 320 323 325 323 321 323 325 323 314 306 303 302 300 299 297 294
262 259 258 255 251 247 244 239 232 226 221 218 216 213 211 209 208 207 207 209 212 216 223 231 240 252 261 272 286 296 303 305 304 305 305 306 309 310 311 313 314 315 316 316 317 318 320 324 324 322 322 325 329 328 316 305 302 300 299 297 296 293
267 263 260 257 252 248 244 237 231 226 222 219 215 211 210 208 206 206 206 208 212 216 223 232 241 252 263 275 289 297 301 302 303 303 304 307 309 309 312 313 313 315 316 316 318 318 320 324 324 323 326 330 334 330 315 306 303 300 299 298 296 294
269 265 261 256 250 244 239 233 228 224 221 217 213 209 208 207 205 204 205 208 211 216 223 232 241 252 264 278 289 295 299 300 301 302 304 308 309 310 312 312 313 316 317 318 320 319 320 324 326 328 331 335 337 329 315 307 305 301 300 301 299 295
274 271 266 259 250 241 236 232 227 223 218 214 210 208 207 205 203 203 205 207 211 216 223 232 242 253 265 278 287 291 296 297 299 302 304 307 309 310 311 312 314 317 319 321 321 320 322 325 329 333 336 338 337 326 314 310 307 305 303 305 304 298
276 272 265 257 248 240 235 231 225 220 216 211 207 206 205 203 202 203 204 207 211 217 224 232 242 254 265 275 283 289 293 295 298 301 304 306 308 309 310 311 314 318 320 322 323 322 324 327 333 338 341 341 335 321 314 312 311 309 308 308 307 301
268 264 256 248 244 240 235 230 223 218 213 208 205 204 203 201 201 202 204 207 211 217 225 233 241 252 264 273 281 287 290 293 297 301 303 306 307 308 310 312 316 320 322 323 324 325 326 330 337 343 344 343 335 321 315 315 314 312 312 312 309 304
261 256 249 244 240 236 232 228 221 216 211 206 204 202 201 201 201 202 204 207 212 218 225 233 242 251 261 271 279 284 287 292 297 300 302 305 306 309 313 315 318 321 325 325 325 328 332 336 342 345 346 344 337 325 318 318 316 315 314 314 311 306
256 253 249 245 239 233 228 224 218 213 209 205 203 202 200 200 200 201 204 206 212 219 225 233 241 249 259 269 276 281 286 292 296 299 301 304 307 311 315 318 320 323 326 327 328 334 341 343 344 345 345 345 341 329 321 319 318 316 316 314 311 308
252 254 252 246 238 230 225 219 213 209 206 204 202 200 199 199 199 200 203 206 211 218 225 232 238 246 257 266 273 279 286 292 296 298 302 305 308 313 317 320 322 324 327 330 335 341 346 347 346 344 345 346 343 333 325 322 320 318 317 314 312 309
241 239 236 234 231 226 222 216 209 206 203 201 200 198 197 197 198 199 202 206 212 218 224 231 236 243 254 263 270 278 286 292 296 300 304 307 311 315 319 322 325 327 330 335 341 346 348 347 347 345 345 347 343 334 327 324 321 320 318 315 312 310
235 231 228 226 224 220 217 212 206 203 200 198 197 195 195 195 196 198 201 205 211 218 222 227 235 242 252 260 268 276 285 292 297 301 305 309 313 317 321 326 328 330 334 339 346 349 348 347 347 347 348 347 341 333 329 326 324 323 321 317 313 311
232 228 225 223 220 216 213 209 205 200 197 195 193 192 193 194 194 197 201 205 211 217 219 223 231 240 249 258 267 276 285 292 296 300 305 310 315 320 325 330 332 335 339 343 347 349 349 347 346 348 350 347 339 332 330 328 326 327 325 321 316 314
234 227 223 220 216 212 209 206 203 198 194 192 192 192 192 192 194 196 200 206 211 213 215 221 227 235 245 257 266 276 284 290 295 300 305 311 316 322 329 333 336 341 344 345 345 347 349 347 347 350 352 347 339 335 333 330 330 332 332 328 324 319
229 227 222 217 212 208 205 203 201 197 193 190 190 191 191 191 193 196 200 206 208 209 213 219 225 230 242 255 264 273 282 287 293 299 305 312 319 326 332 337 342 346 346 344 344 345 347 349 350 352 351 345 340 339 337 334 334 336 338 336 331 326
226 224 220 215 210 205 200 198 196 195 193 190 188 189 189 190 193 197 201 204 204 207 212 216 220 227 240 254 264 271 279 286 293 301 308 317 323 329 336 343 347 348 345 344 344 344 346 349 352 353 350 344 341 340 339 337 337 339 342 341 336 331
231 227 221 215 208 202 197 193 191 192 193 191 189 188 188 189 193 197 200 201 200 205 210 210 213 224 238 253 263 269 278 287 295 303 311 321 329 336 342 347 349 347 344 343 343 343 345 350 353 352 347 342 340 341 340 340 340 341 344 342 338 335
235 229 223 216 208 200 195 190 188 189 190 190 189 188 189 191 193 194 196 197 199 204 205 203 207 219 233 247 259 265 274 283 291 302 314 325 337 345 347 346 346 344 342 342 343 343 346 349 350 348 344 341 342 343 342 341 342 343 345 344 343 345
236 230 221 214 207 199 192 189 187 186 187 188 188 190 192 193 192 191 192 195 199 201 199 197 202 214 228 241 253 262 272 282 289 299 313 327 339 347 347 342 341 341 339 339 340 343 347 348 346 344 344 346 347 347 347 346 345 347 350 351 353 356
229 225 218 211 203 196 190 188 185 183 184 187 189 191 194 194 192 191 191 194 197 195 192 192 199 211 224 234 242 254 269 285 298 309 321 332 340 345 344 340 339 341 341 339 337 339 346 351 349 348 349 351 352 352 353 354 354 355 357 0 3 7
224 220 215 208 200 193 189 186 184 183 185 186 188 191 192 193 193 193 193 194 193 191 189 191 197 207 219 227 231 236 245 258 286 317 333 338 337 336 338 343 344 344 344 344 340 338 344 352 354 354 354 355 356 357 357 358 2 4 5 6 11 16
228 219 212 205 197 192 188 185 185 185 186 187 189 191 191 190 192 194 196 193 190 188 188 190 196 207 216 223 227 231 234 234 234 239 315 325 324 328 335 343 349 350 349 348 345 343 347 353 356 356 358 358 359 360 359 359 5 12 15 17 20 22
225 214 207 202 196 191 188 186 186 186 187 188 189 190 189 187 187 190 194 191 187 186 186 188 196 206 213 218 223 229 234 239 247 248 196 208 287 314 330 338 345 353 355 353 351 348 351 357 360 359 0 2 3 3 1 360 4 12 18 23 27 26
219 211 204 199 194 190 188 187 187 186 187 188 188 188 186 183 183 185 187 184 183 185 185 188 195 202 209 216 219 224 233 239 267 324 348 358 356 357 357 351 353 359 359 359 359 355 355 1 5 2 2 6 7 5 3 4 8 12 16 21 26 26
214 208 201 196 192 189 187 187 187 187 187 187 187 186 184 182 184 186 184 181 183 183 183 187 194 198 204 213 216 218 227 236 310 346 357 3 3 3 2 0 3 5 2 2 3 358 358 8 11 6 6 10 11 10 10 12 15 17 19 21 23 24